When you browse on this site, cookies collect data to enhance your experience and personalize the content and advertising you see.
Visit our Privacy Policy to learn more. By continuing to use the site, you agree to this use of cookies and data.
  • In Hungary
  • List of Countries
  • For 7 days
  • Water Temperature
  • Satellite Maps
  • Weather Map
  • News
  • Weather Widgets
  • user-avatar
    Login

    Hourly Weather Punta Cana

    Today, 17 November, Saturday

    Time Temperature Precipitation Wind Pressure Humidity
    00:00 +27°C° 0.1 mm 4 mps 761 mmHg 86%
    01:00 +27°C° 0.1 mm 4 mps 761 mmHg 86%
    02:00 +27°C° 0.1 mm 4 mps 761 mmHg 86%
    03:00 +27°C° 0.1 mm 4 mps 761 mmHg 86%
    04:00 +27°C° 0.1 mm 4 mps 761 mmHg 87%
    05:00 +28°C° 0 mm 4 mps 761 mmHg 85%
    06:00 +28°C° 0 mm 4 mps 762 mmHg 83%
    07:00 +29°C° 0 mm 4 mps 762 mmHg 81%
    08:00 +30°C° 0 mm 5 mps 762 mmHg 75%
    09:00 +32°C° 0 mm 5 mps 763 mmHg 69%
    10:00 +33°C° 0 mm 5 mps 763 mmHg 63%
    11:00 +33°C° 0 mm 5 mps 763 mmHg 63%
    12:00 +34°C° 0 mm 5 mps 762 mmHg 62%
    13:00 +34°C° 0 mm 5 mps 761 mmHg 62%
    14:00 +33°C° 0 mm 5 mps 761 mmHg 65%
    15:00 +32°C° 0 mm 5 mps 761 mmHg 68%
    16:00 +30°C° 0 mm 4 mps 761 mmHg 72%
    17:00 +29°C° 0.1 mm 4 mps 761 mmHg 77%
    18:00 +28°C° 0.1 mm 4 mps 761 mmHg 81%
    19:00 +28°C° 0.1 mm 4 mps 762 mmHg 86%
    20:00 +27°C° 0.1 mm 5 mps 762 mmHg 86%
    21:00 +27°C° 0.1 mm 5 mps 762 mmHg 87%
    22:00 +27°C° 0.1 mm 5 mps 762 mmHg 87%
    23:00 +27°C° 0.2 mm 5 mps 762 mmHg 87%

    Tomorrow, 18 November, Sunday

    Time Temperature Precipitation Wind Pressure Humidity
    00:00 +27°C° 0.2 mm 5 mps 762 mmHg 87%
    01:00 +27°C° 0.2 mm 5 mps 762 mmHg 87%
    02:00 +27°C° 0.1 mm 5 mps 761 mmHg 87%
    03:00 +27°C° 0.1 mm 5 mps 761 mmHg 87%
    04:00 +27°C° 0.1 mm 5 mps 761 mmHg 86%
    05:00 +28°C° 0 mm 5 mps 761 mmHg 84%
    06:00 +28°C° 0 mm 5 mps 762 mmHg 82%
    07:00 +29°C° 0 mm 5 mps 762 mmHg 80%
    08:00 +30°C° 0 mm 5 mps 763 mmHg 75%
    09:00 +32°C° 0 mm 5 mps 763 mmHg 69%
    10:00 +33°C° 0 mm 5 mps 763 mmHg 63%
    11:00 +33°C° 0 mm 5 mps 763 mmHg 62%
    12:00 +33°C° 0 mm 5 mps 762 mmHg 61%
    13:00 +33°C° 0 mm 5 mps 762 mmHg 60%
    14:00 +33°C° 0 mm 5 mps 761 mmHg 65%
    15:00 +32°C° 0 mm 5 mps 761 mmHg 69%
    16:00 +30°C° 0 mm 6 mps 761 mmHg 74%
    17:00 +29°C° 0 mm 6 mps 761 mmHg 78%
    18:00 +28°C° 0 mm 6 mps 762 mmHg 82%
    19:00 +27°C° 0 mm 6 mps 762 mmHg 86%
    20:00 +27°C° 0.1 mm 5 mps 762 mmHg 87%
    21:00 +27°C° 0.1 mm 5 mps 762 mmHg 87%
    22:00 +27°C° 0.1 mm 5 mps 763 mmHg 87%
    23:00 +27°C° 0.2 mm 5 mps 762 mmHg 88%

    Day after tomorrow, 19 November, Monday

    Time Temperature Precipitation Wind Pressure Humidity
    00:00 +27°C° 0.2 mm 5 mps 762 mmHg 89%
    01:00 +27°C° 0.2 mm 5 mps 762 mmHg 90%
    02:00 +27°C° 0.1 mm 5 mps 762 mmHg 89%
    03:00 +27°C° 0.1 mm 5 mps 761 mmHg 89%
    04:00 +26°C° 0.1 mm 5 mps 761 mmHg 89%
    05:00 +27°C° 0 mm 5 mps 761 mmHg 86%
    06:00 +27°C° 0 mm 5 mps 762 mmHg 83%
    07:00 +28°C° 0 mm 5 mps 762 mmHg 80%
    08:00 +29°C° 0 mm 5 mps 762 mmHg 72%
    09:00 +30°C° 0 mm 5 mps 763 mmHg 65%
    10:00 +33°C° 0 mm 5 mps 763 mmHg 57%
    11:00 +33°C° 0 mm 5 mps 762 mmHg 57%
    12:00 +33°C° 0 mm 5 mps 762 mmHg 57%
    13:00 +34°C° 0 mm 4 mps 761 mmHg 57%
    14:00 +33°C° 0 mm 4 mps 761 mmHg 62%
    15:00 +32°C° 0 mm 5 mps 761 mmHg 66%
    16:00 +30°C° 0 mm 5 mps 760 mmHg 71%
    17:00 +29°C° 0 mm 5 mps 761 mmHg 76%
    18:00 +28°C° 0 mm 5 mps 761 mmHg 81%
    19:00 +27°C° 0 mm 6 mps 762 mmHg 86%
    20:00 +28°C° 0.1 mm 6 mps 762 mmHg 84%
    21:00 +28°C° 0.1 mm 6 mps 762 mmHg 83%
    22:00 +28°C° 0.1 mm 6 mps 762 mmHg 82%
    23:00 +28°C° 0 mm 5 mps 762 mmHg 82%

    20 November, Tuesday

    Time Temperature Precipitation Wind Pressure Humidity
    00:00 +27°C° 0 mm 5 mps 762 mmHg 83%
    01:00 +27°C° 0 mm 5 mps 761 mmHg 84%
    02:00 +27°C° 0 mm 5 mps 761 mmHg 83%
    03:00 +27°C° 0 mm 5 mps 761 mmHg 83%
    04:00 +27°C° 0 mm 4 mps 761 mmHg 83%
    05:00 +27°C° 0 mm 5 mps 761 mmHg 81%
    06:00 +28°C° 0 mm 5 mps 762 mmHg 79%
    07:00 +28°C° 0 mm 5 mps 762 mmHg 76%
    08:00 +30°C° 0 mm 5 mps 762 mmHg 71%
    09:00 +32°C° 0 mm 5 mps 763 mmHg 65%
    10:00 +33°C° 0 mm 5 mps 763 mmHg 59%
    11:00 +33°C° 0 mm 5 mps 762 mmHg 59%
    12:00 +33°C° 0 mm 5 mps 762 mmHg 58%
    13:00 +33°C° 0 mm 5 mps 761 mmHg 58%
    14:00 +33°C° 0.1 mm 5 mps 761 mmHg 62%
    15:00 +32°C° 0.1 mm 5 mps 761 mmHg 66%
    16:00 +30°C° 0.1 mm 5 mps 761 mmHg 70%
    17:00 +29°C° 0.2 mm 5 mps 761 mmHg 75%
    18:00 +28°C° 0.2 mm 5 mps 762 mmHg 81%
    19:00 +27°C° 0.2 mm 5 mps 762 mmHg 86%
    20:00 +27°C° 0.3 mm 5 mps 762 mmHg 87%
    21:00 +27°C° 0.3 mm 5 mps 762 mmHg 88%
    22:00 +27°C° 0.3 mm 5 mps 762 mmHg 88%
    23:00 +27°C° 0.3 mm 5 mps 762 mmHg 88%

    21 November, Wednesday

    Time Temperature Precipitation Wind Pressure Humidity
    00:00 +26°C° 0.3 mm 5 mps 762 mmHg 88%
    01:00 +26°C° 0.3 mm 5 mps 762 mmHg 88%
    02:00 +26°C° 0 mm 5 mps 762 mmHg 87%
    03:00 +26°C° 0 mm 5 mps 762 mmHg 86%
    04:00 +26°C° 0 mm 5 mps 762 mmHg 86%
    05:00 +27°C° 0 mm 5 mps 762 mmHg 84%
    06:00 +27°C° 0 mm 5 mps 763 mmHg 82%
    07:00 +28°C° 0 mm 5 mps 763 mmHg 81%
    08:00 +29°C° 0 mm 5 mps 763 mmHg 73%
    09:00 +30°C° 0 mm 4 mps 763 mmHg 66%
    10:00 +33°C° 0 mm 4 mps 764 mmHg 58%
    11:00 +33°C° 0 mm 4 mps 763 mmHg 56%
    12:00 +33°C° 0 mm 4 mps 762 mmHg 54%
    13:00 +33°C° 0 mm 3 mps 761 mmHg 52%
    14:00 +31°C° 0 mm 3 mps 761 mmHg 56%
    15:00 +31°C° 0 mm 3 mps 761 mmHg 60%
    16:00 +30°C° 0 mm 3 mps 761 mmHg 64%
    17:00 +29°C° 0 mm 3 mps 761 mmHg 71%
    18:00 +28°C° 0 mm 3 mps 762 mmHg 78%
    19:00 +26°C° 0 mm 3 mps 762 mmHg 85%
    20:00 +26°C° 0.1 mm 3 mps 762 mmHg 86%
    21:00 +26°C° 0.1 mm 3 mps 762 mmHg 87%
    22:00 +26°C° 0.1 mm 3 mps 762 mmHg 88%
    23:00 +26°C° 0.2 mm 3 mps 762 mmHg 88%

    22 November, Thursday

    Time Temperature Precipitation Wind Pressure Humidity
    00:00 +26°C° 0.2 mm 3 mps 761 mmHg 88%
    01:00 +26°C° 0.2 mm 3 mps 761 mmHg 88%
    02:00 +26°C° 0.3 mm 4 mps 761 mmHg 87%
    03:00 +26°C° 0.3 mm 4 mps 761 mmHg 87%
    04:00 +26°C° 0.3 mm 4 mps 761 mmHg 87%
    05:00 +27°C° 0.1 mm 5 mps 761 mmHg 85%
    06:00 +28°C° 0.1 mm 5 mps 762 mmHg 83%
    07:00 +28°C° 0.1 mm 5 mps 762 mmHg 80%
    08:00 +29°C° 0 mm 5 mps 762 mmHg 73%
    09:00 +32°C° 0 mm 5 mps 762 mmHg 66%
    10:00 +33°C° 0 mm 5 mps 762 mmHg 59%
    11:00 +33°C° 0.2 mm 4 mps 762 mmHg 58%
    12:00 +33°C° 0.2 mm 4 mps 761 mmHg 57%
    13:00 +34°C° 0.2 mm 3 mps 760 mmHg 56%
    14:00 +33°C° 0 mm 3 mps 760 mmHg 59%
    15:00 +31°C° 0 mm 3 mps 760 mmHg 63%
    16:00 +30°C° 0 mm 3 mps 760 mmHg 66%
    17:00 +29°C° 0 mm 4 mps 761 mmHg 73%
    18:00 +28°C° 0 mm 4 mps 761 mmHg 79%
    19:00 +27°C° 0 mm 4 mps 761 mmHg 86%
    20:00 +27°C° 0.2 mm 5 mps 761 mmHg 86%
    21:00 +27°C° 0.2 mm 5 mps 761 mmHg 86%
    22:00 +27°C° 0.2 mm 5 mps 761 mmHg 86%
    23:00 +27°C° 0.2 mm 5 mps 761 mmHg 88%
    Show more